Aérodrome :
LOGIN :

S'inscrire | Disclaimer

   EN    FR    IT 

 










Légende :    VFR   VFR Marginal   IFR   IFR Intensif   IFR Très Intensif
Visi : 
Plafond : 
>= 8 km
>= 3000ft
5 à 8 km
1000 à 3000 ft
1500m à 5 km
500 à 1000 ft
800 à 1500m
200 à 500 ft
< 800m
< 200 ft
Symboles :   Orages  Brouillard  Fortes neiges  Fortes précipitations  Vent > 20 kt
SIGMETs :   Divers  Orages  Givrage  Turbulence  Onde Orograph.  Cendres Volcan.






- Altitude de l'aérodrome : 306 ft
- Code IATA : EMA


EGNX - Nottingham East Midlands

DERNIER METAR :
  • 261250Z 24004KT 9999 SCT040 07/05 Q1021

METARs EXPIRÉS :
  • 261220Z 25004KT 9999 FEW040 07/05 Q1021
  • 261120Z 30003KT 9999 FEW041 05/04 Q1021
  • 261050Z VRB03KT 9999 FEW040 04/04 Q1021
  • 261020Z 27004KT 9999 VCFG FEW040 04/04 Q1021

TAF TAF EGNX
Valide du 26 à 12h jusqu'au 27 à 12h UTC


261056Z 2612/2712 VRB02KT 9999 FEW040
BECMG 2615/2618 6000
BECMG 2622/2701 0200 FG VV///
PROB40 2622/2706 FZFG
BECMG 2709/2712 3000 BR SCT010
ATIS : +44 1332 852 852 (ext 3201)



MET'MAP, la Météo Aéronautique d'un coup d'oeil ! - Copyright ORBIFLY Décembre 2007 - Disclaimer

ORBIFLY MET'MAP TEAM :

Programmation & Développement : Alexandra Zaïnal
Sur une idée originale de : Baudouin d'Aumeries
Assistance à la programmation : Marc-Olivier Méhu
Soutien technique & logistique : Manuel Goepfert

Contact : metmap@orbifly.com




SOURCES & CREDITS :

   NOAA